Regional Weather Roundup
Issued by NWS Columbia, SC

Home | Current Version | Previous Version | Text Only | Print | Product List | Glossary On
Versions: 1 2 3 4 5 6 7 8 9 10 11 12 13 14 15 16 17 18 19 20 21 22 23 24 25 26 27 28 29 30 31 32 33 34 35 36 37 38 39 40 41 42 43 44 45 46 47 48 49 50
000
ASUS42 KCAE 251410
RWRCAE
REGIONAL WEATHER ROUNDUP
NATIONAL WEATHER SERVICE COLUMBIA SC
900 AM EST SUN JAN 25 2015

NOTE: "FAIR" INDICATES FEW OR NO CLOUDS BELOW 12,000 FEET WITH NO
SIGNIFICANT WEATHER AND/OR OBSTRUCTIONS TO VISIBILITY.

NOT ALL STATIONS ARE QUALITY CONTROLLED BY THE NATIONAL
WEATHER SERVICE. USE DATA WITH CAUTION...ESPECIALLY
DEWPOINT OBSERVATIONS.

SCZ001>056-GAZ040-063>065-077-251500-
...UPSTATE SOUTH CAROLINA...

CITY           SKY/WX    TMP DP  RH WIND       PRES   REMARKS
ANDERSON       SUNNY     37  31  78 SW5       29.94S WCI  33
LIBERTY        SUNNY     31  30  95 MISG      29.91F
SPARTANBURG    SUNNY     36  30  80 SW3       29.92F
CLEMSON        SUNNY     38  27  64 W3        29.93F
GREENVILLE     SUNNY     35  27  72 W3        29.92F
GREENWOOD      SUNNY     38  31  76 SW6       29.96S WCI  33
GREER          SUNNY     33  30  88 SW3       29.90F
ROCK HILL      SUNNY     34  28  79 SW9       29.95R WCI  27
CHESTER        SUNNY     36  28  75 SW3       29.96R
LAURENS        SUNNY     34  32  93 SW7       29.94S WCI  28


...CENTRAL SOUTH CAROLINA...

CITY           SKY/WX    TMP DP  RH WIND       PRES   REMARKS
COLUMBIA APT   MOSUNNY   35  31  85 CALM      29.98S
COLUMBIA OWENS MOSUNNY   35  32  88 CALM      29.99F
DARLINGTON     SUNNY     34  28  80 S5        29.99R WCI  30
FLORENCE       FAIR      36  31  82 W3        29.99R
MCENTIRE ANGB  MOSUNNY   34  31  91 CALM      29.98F
ORANGEBURG     PTSUNNY   38  32  79 SW6       30.00F WCI  33
SUMTER SHAW    MOSUNNY   38  29  70 SW2       29.96F
NEWBERRY       SUNNY     34 N/A N/A SW3       29.99R
AIKEN          FAIR      37  32  81 SW6       30.00S WCI  33
BARNWELL       FAIR      39  34  81 SW3       30.00F
CAMDEN         FAIR      34  30  86 CALM      29.98F
LANCASTER      LGT RAIN  32  32 100 SW3       29.97R
WINNSBORO      SUNNY     37  32  81 CALM      29.95F


...EASTERN AND COASTAL SOUTH CAROLINA...

CITY           SKY/WX    TMP DP  RH WIND       PRES   REMARKS
MYRTLE BEACH   SUNNY     41  32  70 W8        30.04R
N MYRTLE BCH   MOSUNNY   42  32  67 W7        30.01R
CONWAY         FAIR      39  36  87 SW3       30.02R
MARION         FAIR      36  32  87 SW5       30.00R WCI  32
HARTSVILLE     FAIR      37  28  70 SW3       29.97S
FLORENCE       FAIR      36  31  82 W3        29.99R
DARLINGTON     SUNNY     34  28  80 S5        29.99R WCI  30
CHARLESTON APT PTSUNNY   43  32  65 NW5       30.01F
MOUNT PLEASANT LGT RAIN N/A N/A N/A CALM      30.02S
WALTERBORO     MOSUNNY   41  37  87 NW3       30.01F
BEAUFORT       MOSUNNY   44  32  62 W7        30.01F


...EASTERN GEORGIA...

CITY           SKY/WX    TMP DP  RH WIND       PRES   REMARKS
AUGUSTA BUSH F PTSUNNY   37  31  78 S3        30.00F
AUGUSTA DANIEL PTSUNNY   40  30  67 SW5       29.99F
THOMSON        SUNNY     39  34  82 CALM      30.03S
WASHINGTON     FAIR      41  36  81 SW6       29.98R
CLAXTON        FAIR      41  36  81 W3        30.04R
SYLVANIA       MOSUNNY   39  35  84 CALM      30.02S
STATESBORO     MOSUNNY   41  34  75 W5        30.02S
SAVANNAH       MOSUNNY   42  32  67 W7        30.03F


...SOUTHERN NORTH CAROLINA...

CITY           SKY/WX    TMP DP  RH WIND       PRES   REMARKS
CHARLOTTE      MOSUNNY   34  27  75 CALM      29.94R
MONROE         SUNNY     36  28  73 SW7       29.94R WCI  30
WADESBORO      SUNNY     33  30  90 CALM      29.96R
ROCKINGHAM       N/A     35  29  80 CALM      29.96S
RUTHERFORDTON  SUNNY     33  28  82 CALM      29.92S
ASHEVILLE      SUNNY     30  26  85 CALM      29.90S

$$



USA.gov is the U.S. government's official web portal to all federal, state and local government web resources and services.